SCP
0 0 0 0 0 0 0 0 0 0 0 0 0 0 0 0 0 0 0 0 0 0 0 0 0 0 0 0 0 0 0 0
0 0 0 0 0 0 0 0 0 0 0 0 0 0 0 0 0 0 0 0 0 0 0 0 0 0 0 0 0 0 0 0
0 0 0 0 0 0 0 0 0 0 0 0 0 0 0 0 0 0 0 0 0 0 0 0 0 0 0 0 0 0 0 0
0 0 0 0 0 0 0 0 0 0 0 0 0 0 0 0 0 0 0 0 0 0 0 0 0 0 0 0 0 0 0 0
0 0 0 0 0 0 0 0 0 0 0 0 0 0 0 0 0 0 0 0 0 0 0 0 0 0 0 0 0 0 0 0
0 0 0 0 0 0 0 0 0 0 0 0 0 0 0 0 0 0 0 0 0 0 0 0 0 0 0 0 0 0 0 0
0 0 0 0 0 0 0 0 0 0 0 0 0 0 0 0 0 0 0 0 0 0 0 0 0 0 0 0 0 0 0 0
0 0 -0 0 0 0 0 0 0 0 0 0 0 0 0 0 0 0 0 0 0 0 0 0 0 0 0 0 0 0 0 0
0 0 0 -0 0 0 0 0 0 0 0 0 0 0 0 0 0 0 0 0 0 0 0 0 0 0 0 0 0 0 0 0
0 0 0 0 0 0 0 0 0 0 0 0 0 0 0 0 0 0 0 0 0 0 0 0 0 0 0 0 0 0 0 0
-0 -0 0 0 0 0 0 0 0 0 0 0 0 0 0 0 0 0 0 0 0 0 0 0 0 0 0 0 0 0 0 0
-0 0 0 0 0 0 0 0 0 0 0 0 0 0 0 0 0 0 0 0 0 0 0 0 0 0 0 0 0 0 0 0
0 0 0 0 0 0 0 0 0 0 0 0 0 0 0 0 0 0 0 0 0 0 0 0 0 0 0 0 0 0 0 0
0 0 0 0 0 0 0 0 0 0 0 0 0 0 0 0 0 0 0 0 0 0 0 0 0 0 0 0 -0 -0 -0 0
0 0 0 0 0 0 0 0 0 0 0 0 0 0 0 0 0 0 0 0 -0 -0 -0 0 0 0 -0 -0 -0 -0 0 0
0 0 0 0 0 0 0 0 0 0 0 0 0 0 0 0 0 0 0 0 0 0 0 -0 -0 -0 -0 -0 -0 0 0 0
0 0 0 0 0 0 0 0 0 0 0 0 0 0 0 0 0 0 0 0 0 -0 -0 -0 -0 -0 0 0 0 0 0 0
0 0 0 0 0 0 0 0 0 0 0 0 0 0 0 0 0 0 -0 -0 -0 -0 -0 -0 -0 -0 0 0 0 0 0 0
0 0 0 0 0 0 0 0 0 0 0 0 0 0 0 0 0 0 0 0 -0 -0 -0 0 0 0 0 0 0 0 0 0
0 0 0 0 0 0 0 0 0 0 0 0 0 0 0 0 0 0 0 0 0 -0 -0 -0 -0 -0 -0 -0 -0 -0 -0 -0
Wind_Speed_500mb
56 53 52 52 56 53 54 49 45 40 32 26 18 11 6 3 7 11 14 16 19 22 26 30 35 39 40 41 38 38 39 38
56 54 51 57 56 51 49 46 40 32 23 16 10 3 4 10 14 16 18 21 23 25 29 34 37 37 36 34 33 39 38 41
53 52 53 53 51 46 43 40 34 25 15 10 4 3 8 11 14 18 20 23 26 29 32 34 32 29 25 31 36 38 41 47
49 50 53 51 43 37 31 26 20 13 6 1 3 7 10 13 17 21 24 26 28 30 30 27 23 24 32 34 38 40 43 48
50 49 48 43 37 29 20 16 12 7 4 4 7 9 13 17 20 22 25 25 25 23 20 19 23 29 40 40 41 42 46 47
54 37 29 27 26 22 16 13 11 9 8 6 8 9 13 17 17 18 18 18 17 14 16 26 30 36 44 42 39 40 42 39
64 48 37 30 19 16 12 10 9 8 7 7 6 8 13 18 16 15 14 10 13 16 21 28 34 34 39 42 40 37 38 32
52 43 32 26 23 15 10 6 5 5 7 7 9 10 10 12 13 13 14 15 18 20 24 28 34 36 43 39 39 32 33 33
50 43 37 27 20 14 10 10 12 16 16 15 13 10 10 13 16 17 17 18 17 19 22 26 30 34 31 30 30 28 30 30
45 40 31 25 17 15 17 15 18 20 19 15 12 12 13 15 19 22 24 22 19 17 19 21 24 25 25 23 21 21 23 27
34 26 26 29 23 18 16 16 16 16 19 21 21 19 20 22 23 23 21 21 21 23 24 23 23 26 26 20 17 18 18 20
38 33 30 28 23 19 18 17 15 15 16 19 23 23 24 24 24 26 27 29 32 28 28 29 30 31 34 32 31 29 28 26
35 30 28 29 26 24 24 23 22 16 14 16 19 19 19 17 18 21 23 35 37 33 32 30 34 37 41 41 40 41 41 40
34 31 31 31 28 27 25 25 22 19 16 14 14 13 11 13 14 16 29 29 31 33 33 32 29 33 34 34 33 33 36 37
33 35 36 32 29 27 24 22 19 16 15 16 15 14 13 13 15 16 14 22 28 27 28 30 32 34 35 34 30 29 32 31
36 37 35 30 25 23 19 16 13 13 14 15 16 16 15 16 19 19 19 21 23 25 30 32 32 32 33 31 29 25 32 40
37 36 32 27 21 20 16 14 12 14 15 16 16 15 15 16 16 20 22 25 27 27 30 31 31 32 33 36 39 44 45 45
32 33 30 24 21 20 17 17 16 17 18 18 16 15 16 18 20 22 25 27 29 32 36 41 40 40 43 45 48 48 46 45
38 36 31 28 28 22 21 21 21 22 22 22 22 22 23 24 24 24 25 25 25 27 32 37 37 40 42 43 44 45 45 45
35 34 32 32 30 27 28 28 27 27 27 27 26 26 25 25 24 24 24 24 25 25 25 31 36 36 37 39 39 41 42 42
Wind_Direction_500mb
125 122 120 119 121 127 132 134 137 145 145 142 137 115 83 347 301 299 300 303 308 312 317 321 322 321 321 319 321 321 316 318
127 123 124 126 131 135 135 137 140 139 138 133 125 119 275 286 288 287 295 301 302 307 310 314 316 318 319 318 317 315 313 313
128 125 128 129 131 134 135 137 140 134 133 119 79 325 298 288 285 287 287 291 294 297 306 309 312 317 310 309 312 312 313 314
127 129 132 131 133 135 134 129 127 130 125 106 257 264 274 287 287 287 283 281 288 298 304 304 309 308 304 306 308 312 312 314
127 129 128 134 136 131 133 122 119 116 80 10 341 332 317 302 295 290 287 290 297 304 309 313 309 308 304 299 297 306 313 316
133 129 138 141 131 127 118 104 87 73 56 24 358 348 332 324 319 314 311 312 311 310 306 308 311 305 302 305 304 304 309 315
146 151 152 137 121 104 103 91 79 57 32 15 344 354 350 348 353 341 339 344 319 304 302 309 311 314 315 314 306 306 310 314
141 141 139 134 127 115 91 93 67 43 41 34 24 9 1 8 1 344 339 329 315 307 310 318 319 317 316 318 316 315 318 326
139 140 140 129 115 110 120 92 67 54 43 39 35 25 19 9 359 353 351 342 332 330 326 328 325 322 324 328 329 327 332 342
137 135 127 116 108 105 95 86 69 57 51 43 35 43 43 24 16 12 6 358 348 349 348 352 347 343 339 333 325 323 337 346
128 126 119 108 106 102 100 94 79 61 54 58 58 60 52 37 25 20 13 8 2 358 1 356 1 360 3 358 357 353 344 352
121 115 111 113 116 112 96 84 77 71 58 55 56 53 43 33 28 26 22 18 17 11 6 358 358 357 1 8 5 1 359 347
119 116 113 110 104 95 87 77 73 69 59 55 48 41 41 41 37 28 25 8 5 2 1 358 353 352 353 355 348 348 351 347
116 109 107 102 98 94 83 73 69 65 72 66 51 55 49 48 46 22 4 5 0 358 355 355 356 351 347 344 341 338 339 339
106 104 102 98 98 92 82 69 63 68 73 71 66 62 58 51 37 28 15 356 3 10 10 7 4 4 1 357 354 347 348 349
103 104 102 100 99 92 78 63 61 70 75 71 67 62 51 37 23 22 25 26 24 21 25 22 18 16 14 15 15 18 22 24
106 107 103 98 91 82 73 72 75 78 78 73 62 49 39 31 32 34 39 40 38 34 35 37 33 30 28 31 32 32 28 24
111 105 97 89 79 71 72 77 78 78 75 71 66 62 56 57 55 53 50 46 40 36 31 29 27 29 29 28 27 26 24 20
113 103 93 79 68 66 75 83 85 84 81 79 77 76 73 68 64 60 54 48 39 32 31 27 23 27 24 23 21 19 17 15
112 105 89 73 66 74 80 83 84 85 84 84 81 77 71 64 58 52 45 38 31 26 22 21 27 25 21 19 15 15 14 10
Wind_Speed_850mb
56 53 52 52 56 53 54 49 45 40 32 26 18 11 6 3 7 11 14 16 19 22 26 30 35 39 40 41 38 38 39 38
56 54 51 57 56 51 49 46 40 32 23 16 10 3 4 10 14 16 18 21 23 25 29 34 37 37 36 34 33 39 38 41
53 52 53 53 51 46 43 40 34 25 15 10 4 3 8 11 14 18 20 23 26 29 32 34 32 29 25 31 36 38 41 47
49 50 53 51 43 37 31 26 20 13 6 1 3 7 10 13 17 21 24 26 28 30 30 27 23 24 32 34 38 40 43 48
50 49 48 43 37 29 20 16 12 7 4 4 7 9 13 17 20 22 25 25 25 23 20 19 23 29 40 40 41 42 46 47
54 37 29 27 26 22 16 13 11 9 8 6 8 9 13 17 17 18 18 18 17 14 16 26 30 36 44 42 39 40 42 39
64 48 37 30 19 16 12 10 9 8 7 7 6 8 13 18 16 15 14 10 13 16 21 28 34 34 39 42 40 37 38 32
52 43 32 26 23 15 10 6 5 5 7 7 9 10 10 12 13 13 14 15 18 20 24 28 34 36 43 39 39 32 33 33
50 43 37 27 20 14 10 10 12 16 16 15 13 10 10 13 16 17 17 18 17 19 22 26 30 34 31 30 30 28 30 30
45 40 31 25 17 15 17 15 18 20 19 15 12 12 13 15 19 22 24 22 19 17 19 21 24 25 25 23 21 21 23 27
34 26 26 29 23 18 16 16 16 16 19 21 21 19 20 22 23 23 21 21 21 23 24 23 23 26 26 20 17 18 18 20
38 33 30 28 23 19 18 17 15 15 16 19 23 23 24 24 24 26 27 29 32 28 28 29 30 31 34 32 31 29 28 26
35 30 28 29 26 24 24 23 22 16 14 16 19 19 19 17 18 21 23 35 37 33 32 30 34 37 41 41 40 41 41 40
34 31 31 31 28 27 25 25 22 19 16 14 14 13 11 13 14 16 29 29 31 33 33 32 29 33 34 34 33 33 36 37
33 35 36 32 29 27 24 22 19 16 15 16 15 14 13 13 15 16 14 22 28 27 28 30 32 34 35 34 30 29 32 31
36 37 35 30 25 23 19 16 13 13 14 15 16 16 15 16 19 19 19 21 23 25 30 32 32 32 33 31 29 25 32 40
37 36 32 27 21 20 16 14 12 14 15 16 16 15 15 16 16 20 22 25 27 27 30 31 31 32 33 36 39 44 45 45
32 33 30 24 21 20 17 17 16 17 18 18 16 15 16 18 20 22 25 27 29 32 36 41 40 40 43 45 48 48 46 45
38 36 31 28 28 22 21 21 21 22 22 22 22 22 23 24 24 24 25 25 25 27 32 37 37 40 42 43 44 45 45 45
35 34 32 32 30 27 28 28 27 27 27 27 26 26 25 25 24 24 24 24 25 25 25 31 36 36 37 39 39 41 42 42
Wind_Direction_850mb
125 122 120 119 121 127 132 134 137 145 145 142 137 115 83 347 301 299 300 303 308 312 317 321 322 321 321 319 321 321 316 318
127 123 124 126 131 135 135 137 140 139 138 133 125 119 275 286 288 287 295 301 302 307 310 314 316 318 319 318 317 315 313 313
128 125 128 129 131 134 135 137 140 134 133 119 79 325 298 288 285 287 287 291 294 297 306 309 312 317 310 309 312 312 313 314
127 129 132 131 133 135 134 129 127 130 125 106 257 264 274 287 287 287 283 281 288 298 304 304 309 308 304 306 308 312 312 314
127 129 128 134 136 131 133 122 119 116 80 10 341 332 317 302 295 290 287 290 297 304 309 313 309 308 304 299 297 306 313 316
133 129 138 141 131 127 118 104 87 73 56 24 358 348 332 324 319 314 311 312 311 310 306 308 311 305 302 305 304 304 309 315
146 151 152 137 121 104 103 91 79 57 32 15 344 354 350 348 353 341 339 344 319 304 302 309 311 314 315 314 306 306 310 314
141 141 139 134 127 115 91 93 67 43 41 34 24 9 1 8 1 344 339 329 315 307 310 318 319 317 316 318 316 315 318 326
139 140 140 129 115 110 120 92 67 54 43 39 35 25 19 9 359 353 351 342 332 330 326 328 325 322 324 328 329 327 332 342
137 135 127 116 108 105 95 86 69 57 51 43 35 43 43 24 16 12 6 358 348 349 348 352 347 343 339 333 325 323 337 346
128 126 119 108 106 102 100 94 79 61 54 58 58 60 52 37 25 20 13 8 2 358 1 356 1 360 3 358 357 353 344 352
121 115 111 113 116 112 96 84 77 71 58 55 56 53 43 33 28 26 22 18 17 11 6 358 358 357 1 8 5 1 359 347
119 116 113 110 104 95 87 77 73 69 59 55 48 41 41 41 37 28 25 8 5 2 1 358 353 352 353 355 348 348 351 347
116 109 107 102 98 94 83 73 69 65 72 66 51 55 49 48 46 22 4 5 0 358 355 355 356 351 347 344 341 338 339 339
106 104 102 98 98 92 82 69 63 68 73 71 66 62 58 51 37 28 15 356 3 10 10 7 4 4 1 357 354 347 348 349
103 104 102 100 99 92 78 63 61 70 75 71 67 62 51 37 23 22 25 26 24 21 25 22 18 16 14 15 15 18 22 24
106 107 103 98 91 82 73 72 75 78 78 73 62 49 39 31 32 34 39 40 38 34 35 37 33 30 28 31 32 32 28 24
111 105 97 89 79 71 72 77 78 78 75 71 66 62 56 57 55 53 50 46 40 36 31 29 27 29 29 28 27 26 24 20
113 103 93 79 68 66 75 83 85 84 81 79 77 76 73 68 64 60 54 48 39 32 31 27 23 27 24 23 21 19 17 15
112 105 89 73 66 74 80 83 84 85 84 84 81 77 71 64 58 52 45 38 31 26 22 21 27 25 21 19 15 15 14 10